Location: Puketoi
(40.5833°S, 176.0167°E)
Time: 14:13:37
(UTC+00:00)

Lacrosse 5 rocket - Pass Details

Date: 08 February 2023
Orbit: 454 x 613 km, 57.0° (Epoch: 22 March)

Event Time Altitude Azimuth Distance (km) Brightness Sun altitude
Rises 16:16:22 0° 219° (SW) 2,922 5.0 -13.7°
Reaches altitude 10° 16:19:30 10° 197° (SSW) 2,009 4.4 -13.2°
Maximum altitude 16:22:23 16° 158° (SSE) 1,627 4.5 -12.7°
Drops below altitude 10° 16:25:13 10° 119° (ESE) 1,976 5.7 -12.3°
Sets 16:28:16 0° 97° (E) 2,851 6.3 -11.8°
